| time (UTC) | temp F | wind direction | speed MPH | gust MPH | rain 1hr in | rain 24hr in | rain mn in | humidity % | barometer mb |
| 20260904203629 | 96 | 247 | 8.0 | 14.0 | 0.00 | 0.00 | 0.00 | 25 | 1007.8 |
| 20260904203128 | 97 | 184 | 8.0 | 14.0 | 0.00 | 0.00 | 0.00 | 25 | 1007.9 |
| 20260904202625 | 97 | 117 | 9.0 | 18.0 | 0.00 | 0.00 | 0.00 | 24 | 1007.9 |
| 20260904202125 | 97 | 148 | 8.0 | 18.0 | 0.00 | 0.00 | 0.00 | 24 | 1008.0 |
| 20260904201625 | 96 | 144 | 5.0 | 13.0 | 0.00 | 0.00 | 0.00 | 25 | 1008.0 |
| 20260904201124 | 97 | 140 | 5.0 | 13.0 | 0.00 | 0.00 | 0.00 | 25 | 1008.0 |
| 20260904200854 | 98 | 115 | 7.0 | 16.0 | 0.00 | 0.00 | 0.00 | 25 | 1008.1 |
| 20260904200123 | 97 | 209 | 9.0 | 20.0 | 0.00 | 0.00 | 0.00 | 26 | 1008.3 |
| 20260904195621 | 98 | 176 | 9.0 | 20.0 | 0.00 | 0.00 | 0.00 | 25 | 1008.4 |
| 20260904195121 | 98 | 212 | 8.0 | 16.0 | 0.00 | 0.00 | 0.00 | 25 | 1008.3 |
| 20260904194621 | 98 | 0 | 7.0 | 16.0 | 0.00 | 0.00 | 0.00 | 25 | 1008.4 |
| 20260904194121 | 98 | 220 | 8.0 | 15.0 | 0.00 | 0.00 | 0.00 | 25 | 1008.4 |
| 20260904193621 | 98 | 210 | 7.0 | 14.0 | 0.00 | 0.00 | 0.00 | 25 | 1008.5 |
| 20260904193121 | 98 | 225 | 7.0 | 14.0 | 0.00 | 0.00 | 0.00 | 25 | 1008.6 |
| 20260904192616 | 97 | 143 | 9.0 | 17.0 | 0.00 | 0.00 | 0.00 | 26 | 1008.7 |
| 20260904192117 | 97 | 151 | 7.0 | 17.0 | 0.00 | 0.00 | 0.00 | 25 | 1008.7 |
| 20260904191617 | 98 | 153 | 6.0 | 16.0 | 0.00 | 0.00 | 0.00 | 25 | 1008.8 |
| 20260904191115 | 97 | 169 | 7.0 | 16.0 | 0.00 | 0.00 | 0.00 | 26 | 1008.9 |
| 20260904190847 | 97 | 198 | 6.0 | 16.0 | 0.00 | 0.00 | 0.00 | 26 | 1008.9 |
| 20260904190114 | 97 | 207 | 6.0 | 12.0 | 0.00 | 0.00 | 0.00 | 27 | 1009.0 |
| 20260904185605 | 97 | 155 | 7.0 | 12.0 | 0.00 | 0.00 | 0.00 | 26 | 1009.1 |
| 20260904185105 | 97 | 238 | 7.0 | 14.0 | 0.00 | 0.00 | 0.00 | 26 | 1009.1 |
| 20260904184605 | 96 | 190 | 7.0 | 14.0 | 0.00 | 0.00 | 0.00 | 26 | 1009.1 |
| 20260904184103 | 96 | 273 | 6.0 | 11.0 | 0.00 | 0.00 | 0.00 | 28 | 1009.3 |
| 20260904183832 | 96 | 262 | 4.0 | 11.0 | 0.00 | 0.00 | 0.00 | 28 | 1009.3 |
| 20260904183101 | 96 | 240 | 6.0 | 15.0 | 0.00 | 0.00 | 0.00 | 28 | 1009.4 |
| 20260904182831 | 96 | 265 | 7.0 | 15.0 | 0.00 | 0.00 | 0.00 | 28 | 1009.5 |
| 20260904182058 | 96 | 221 | 5.0 | 13.0 | 0.00 | 0.00 | 0.00 | 28 | 1009.5 |
| 20260904181559 | 96 | 282 | 5.0 | 11.0 | 0.00 | 0.00 | 0.00 | 28 | 1009.6 |
| 20260904181057 | 95 | 297 | 5.0 | 15.0 | 0.00 | 0.00 | 0.00 | 28 | 1009.6 |
| 20260904180556 | 95 | 126 | 5.0 | 15.0 | 0.00 | 0.00 | 0.00 | 28 | 1009.7 |
| 20260904180056 | 95 | 217 | 5.0 | 12.0 | 0.00 | 0.00 | 0.00 | 28 | 1009.8 |
| 20260904175555 | 95 | 251 | 6.0 | 14.0 | 0.00 | 0.00 | 0.00 | 28 | 1009.8 |
| 20260904175326 | 94 | 1 | 6.0 | 14.0 | 0.00 | 0.00 | 0.00 | 29 | 1010.0 |
| 20260904174554 | 94 | 188 | 6.0 | 14.0 | 0.00 | 0.00 | 0.00 | 30 | 1010.0 |
| 20260904174053 | 94 | 291 | 6.0 | 14.0 | 0.00 | 0.00 | 0.00 | 30 | 1010.1 |
| 20260904173554 | 93 | 195 | 6.0 | 12.0 | 0.00 | 0.00 | 0.00 | 30 | 1010.2 |
| 20260904173053 | 93 | 0 | 7.0 | 13.0 | 0.00 | 0.00 | 0.00 | 30 | 1010.2 |
| 20260904172551 | 93 | 359 | 7.0 | 14.0 | 0.00 | 0.00 | 0.00 | 30 | 1010.2 |
| 20260904172052 | 93 | 297 | 7.0 | 14.0 | 0.00 | 0.00 | 0.00 | 31 | 1010.2 |
| 20260904171550 | 93 | 185 | 7.0 | 15.0 | 0.00 | 0.00 | 0.00 | 31 | 1010.3 |
| 20260904171055 | 92 | 287 | 8.0 | 15.0 | 0.00 | 0.00 | 0.00 | 32 | 1010.3 |
| 20260904171051 | 92 | 277 | 8.0 | 15.0 | 0.00 | 0.00 | 0.00 | 32 | 1010.2 |
| 20260904170323 | 92 | 290 | 7.0 | 15.0 | 0.00 | 0.00 | 0.00 | 32 | 1010.3 |
| 20260904165817 | 92 | 261 | 8.0 | 14.0 | 0.00 | 0.00 | 0.00 | 32 | 1010.3 |
| 20260904165047 | 92 | 1 | 8.0 | 14.0 | 0.00 | 0.00 | 0.00 | 33 | 1010.3 |
| 20260904164548 | 91 | 174 | 8.0 | 13.0 | 0.00 | 0.00 | 0.00 | 33 | 1010.4 |
| 20260904164050 | 91 | 279 | 9.0 | 17.0 | 0.00 | 0.00 | 0.00 | 33 | 1010.4 |
| 20260904164045 | 91 | 230 | 8.0 | 15.0 | 0.00 | 0.00 | 0.00 | 33 | 1010.4 |
| 20260904163050 | 91 | 288 | 8.0 | 14.0 | 0.00 | 0.00 | 0.00 | 33 | 1010.5 |
| 20260904163045 | 91 | 281 | 9.0 | 17.0 | 0.00 | 0.00 | 0.00 | 32 | 1010.4 |
| 20260904162043 | 91 | 277 | 7.0 | 14.0 | 0.00 | 0.00 | 0.00 | 33 | 1010.4 |
| 20260904161812 | 90 | 221 | 7.0 | 13.0 | 0.00 | 0.00 | 0.00 | 35 | 1010.4 |
| 20260904161040 | 90 | 290 | 7.0 | 14.0 | 0.00 | 0.00 | 0.00 | 35 | 1010.4 |
| 20260904160540 | 89 | 234 | 7.0 | 14.0 | 0.00 | 0.00 | 0.00 | 36 | 1010.4 |
| 20260904160038 | 89 | 211 | 7.0 | 16.0 | 0.00 | 0.00 | 0.00 | 37 | 1010.3 |
| 20260904155538 | 88 | 200 | 7.0 | 16.0 | 0.00 | 0.00 | 0.00 | 37 | 1010.3 |
| 20260904155039 | 88 | 261 | 7.0 | 15.0 | 0.00 | 0.00 | 0.00 | 39 | 1010.3 |
| 20260904154539 | 87 | 217 | 7.0 | 11.0 | 0.00 | 0.00 | 0.00 | 39 | 1010.4 |
| 20260904154038 | 86 | 228 | 7.0 | 11.0 | 0.00 | 0.00 | 0.00 | 40 | 1010.3 |
| 20260904153810 | 86 | 225 | 7.0 | 12.0 | 0.00 | 0.00 | 0.00 | 44 | 1010.3 |
| 20260904153038 | 85 | 245 | 7.0 | 12.0 | 0.00 | 0.00 | 0.00 | 43 | 1010.3 |
| 20260904152537 | 85 | 219 | 7.0 | 11.0 | 0.00 | 0.00 | 0.00 | 45 | 1010.3 |
| 20260904152042 | 84 | 196 | 8.0 | 12.0 | 0.00 | 0.00 | 0.00 | 45 | 1010.3 |
| 20260904152038 | 84 | 254 | 7.0 | 12.0 | 0.00 | 0.00 | 0.00 | 45 | 1010.3 |
| 20260904151034 | 83 | 243 | 7.0 | 12.0 | 0.00 | 0.00 | 0.00 | 45 | 1010.3 |
| 20260904150805 | 83 | 212 | 6.0 | 10.0 | 0.00 | 0.00 | 0.00 | 47 | 1010.3 |
| 20260904150035 | 82 | 205 | 5.0 | 10.0 | 0.00 | 0.00 | 0.00 | 48 | 1010.4 |
| 20260904145531 | 82 | 323 | 5.0 | 10.0 | 0.00 | 0.00 | 0.00 | 49 | 1010.3 |
| 20260904145301 | 81 | 205 | 6.0 | 11.0 | 0.00 | 0.00 | 0.00 | 50 | 1010.4 |
| 20260904144530 | 80 | 186 | 5.0 | 11.0 | 0.00 | 0.00 | 0.00 | 50 | 1010.3 |
| 20260904144028 | 80 | 265 | 5.0 | 9.0 | 0.00 | 0.00 | 0.00 | 50 | 1010.4 |
| 20260904143800 | 79 | 248 | 5.0 | 8.0 | 0.00 | 0.00 | 0.00 | 51 | 1010.4 |
| 20260904143300 | 79 | 236 | 4.0 | 6.0 | 0.00 | 0.00 | 0.00 | 53 | 1010.5 |
| 20260904142529 | 78 | 199 | 5.0 | 8.0 | 0.00 | 0.00 | 0.00 | 54 | 1010.4 |
| 20260904142305 | 78 | 184 | 4.0 | 8.0 | 0.00 | 0.00 | 0.00 | 54 | 1010.4 |
| 20260904141529 | 77 | 211 | 3.0 | 7.0 | 0.00 | 0.00 | 0.00 | 55 | 1010.5 |
| 20260904141029 | 76 | 204 | 4.0 | 6.0 | 0.00 | 0.00 | 0.00 | 57 | 1010.4 |
| 20260904140528 | 75 | 172 | 4.0 | 6.0 | 0.00 | 0.00 | 0.00 | 58 | 1010.4 |
| 20260904140030 | 75 | 213 | 3.0 | 6.0 | 0.00 | 0.00 | 0.00 | 59 | 1010.3 |
| 20260904135524 | 74 | 198 | 2.0 | 5.0 | 0.00 | 0.00 | 0.00 | 59 | 1010.3 |
| 20260904135022 | 74 | 224 | 1.0 | 4.0 | 0.00 | 0.00 | 0.00 | 60 | 1010.3 |
| 20260904134755 | 74 | 154 | 0.0 | 2.0 | 0.00 | 0.00 | 0.00 | 61 | 1010.4 |
| 20260904134004 | 73 | 122 | 0.0 | 2.0 | 0.00 | 0.00 | 0.00 | 63 | 1010.4 |
| 20260904133501 | 72 | 194 | 1.0 | 2.0 | 0.00 | 0.00 | 0.00 | 65 | 1010.4 |
| 20260904132959 | 71 | 168 | 1.0 | 4.0 | 0.00 | 0.00 | 0.00 | 66 | 1010.3 |
| 20260904132455 | 70 | 165 | 2.0 | 5.0 | 0.00 | 0.00 | 0.00 | 66 | 1010.2 |
| 20260904131953 | 70 | 191 | 3.0 | 5.0 | 0.00 | 0.00 | 0.00 | 67 | 1010.2 |
| 20260904131723 | 70 | 203 | 3.0 | 5.0 | 0.00 | 0.00 | 0.00 | 68 | 1010.0 |
| 20260904131223 | 69 | 199 | 3.0 | 5.0 | 0.00 | 0.00 | 0.00 | 69 | 1009.9 |
| 20260904130452 | 69 | 188 | 3.0 | 5.0 | 0.00 | 0.00 | 0.00 | 69 | 1009.8 |
| 20260904125952 | 69 | 197 | 3.0 | 5.0 | 0.00 | 0.00 | 0.00 | 69 | 1009.9 |
| 20260904125451 | 69 | 158 | 4.0 | 6.0 | 0.00 | 0.00 | 0.00 | 69 | 1009.9 |
| 20260904124949 | 68 | 212 | 4.0 | 6.0 | 0.00 | 0.00 | 0.00 | 70 | 1009.9 |
| 20260904124448 | 68 | 174 | 3.0 | 5.0 | 0.00 | 0.00 | 0.00 | 70 | 1009.9 |
| 20260904124219 | 68 | 174 | 4.0 | 5.0 | 0.00 | 0.00 | 0.00 | 70 | 1009.8 |
| 20260904123449 | 68 | 182 | 4.0 | 6.0 | 0.00 | 0.00 | 0.00 | 71 | 1009.7 |
| 20260904122947 | 67 | 162 | 4.0 | 7.0 | 0.00 | 0.00 | 0.00 | 71 | 1009.7 |
| 20260904122717 | 67 | 131 | 4.0 | 7.0 | 0.00 | 0.00 | 0.00 | 71 | 1009.7 |
| 20260904121942 | 67 | 160 | 4.0 | 5.0 | 0.00 | 0.00 | 0.00 | 71 | 1009.7 |
| 20260904121442 | 67 | 176 | 3.0 | 5.0 | 0.00 | 0.00 | 0.00 | 72 | 1009.7 |
| 20260904120940 | 67 | 196 | 3.0 | 5.0 | 0.00 | 0.00 | 0.00 | 70 | 1009.7 |
| 20260904120438 | 68 | 155 | 3.0 | 4.0 | 0.00 | 0.00 | 0.00 | 69 | 1009.8 |
| 20260904115930 | 68 | 150 | 3.0 | 4.0 | 0.00 | 0.00 | 0.00 | 68 | 1009.7 |
| 20260904115701 | 69 | 152 | 2.0 | 4.0 | 0.00 | 0.00 | 0.00 | 68 | 1009.7 |
| 20260904115537 | 69 | 156 | 2.0 | 5.0 | 0.00 | 0.00 | 0.00 | 67 | 1009.6 |
| 20260904114430 | 70 | 169 | 2.0 | 5.0 | 0.00 | 0.00 | 0.00 | 66 | 1009.7 |
| 20260904113930 | 70 | 146 | 1.0 | 5.0 | 0.00 | 0.00 | 0.00 | 65 | 1009.6 |
| 20260904113700 | 70 | 140 | 1.0 | 3.0 | 0.00 | 0.00 | 0.00 | 64 | 1009.6 |
| 20260904112926 | 70 | 217 | 1.0 | 4.0 | 0.00 | 0.00 | 0.00 | 64 | 1009.5 |
| 20260904112426 | 71 | 214 | 1.0 | 4.0 | 0.00 | 0.00 | 0.00 | 63 | 1009.6 |
| 20260904112157 | 71 | 141 | 2.0 | 3.0 | 0.00 | 0.00 | 0.00 | 62 | 1009.5 |
| 20260904111428 | 72 | 148 | 1.0 | 4.0 | 0.00 | 0.00 | 0.00 | 62 | 1009.6 |
| 20260904110917 | 72 | 229 | 1.0 | 4.0 | 0.00 | 0.00 | 0.00 | 62 | 1009.5 |
| 20260904110416 | 72 | 221 | 2.0 | 6.0 | 0.00 | 0.00 | 0.00 | 62 | 1009.4 |
| 20260904105916 | 72 | 277 | 3.0 | 7.0 | 0.00 | 0.00 | 0.00 | 62 | 1009.4 |
| 20260904105417 | 72 | 315 | 4.0 | 7.0 | 0.00 | 0.00 | 0.00 | 63 | 1009.3 |
| 20260904104912 | 72 | 255 | 5.0 | 7.0 | 0.00 | 0.00 | 0.00 | 63 | 1009.4 |
| 20260904104412 | 72 | 209 | 4.0 | 6.0 | 0.00 | 0.00 | 0.00 | 62 | 1009.4 |
| 20260904103912 | 72 | 212 | 4.0 | 7.0 | 0.00 | 0.00 | 0.00 | 62 | 1009.4 |
| 20260904103410 | 72 | 217 | 4.0 | 9.0 | 0.00 | 0.00 | 0.00 | 63 | 1009.4 |
| 20260904103141 | 72 | 245 | 5.0 | 9.0 | 0.00 | 0.00 | 0.00 | 63 | 1009.5 |
| 20260904102640 | 72 | 255 | 3.0 | 8.0 | 0.00 | 0.00 | 0.00 | 64 | 1009.5 |
| 20260904102137 | 72 | 233 | 3.0 | 5.0 | 0.00 | 0.00 | 0.00 | 63 | 1009.5 |
| 20260904101407 | 72 | 191 | 3.0 | 6.0 | 0.00 | 0.00 | 0.00 | 62 | 1009.4 |
| 20260904100904 | 72 | 205 | 2.0 | 6.0 | 0.00 | 0.00 | 0.00 | 63 | 1009.4 |
| 20260904100405 | 72 | 186 | 2.0 | 4.0 | 0.00 | 0.00 | 0.00 | 62 | 1009.1 |
| 20260904095902 | 72 | 221 | 2.0 | 5.0 | 0.00 | 0.00 | 0.00 | 62 | 1009.1 |
| 20260904095403 | 73 | 193 | 2.0 | 5.0 | 0.00 | 0.00 | 0.00 | 62 | 1008.9 |
| 20260904094852 | 73 | 186 | 2.0 | 4.0 | 0.00 | 0.00 | 0.00 | 62 | 1009.0 |
| 20260904094352 | 73 | 216 | 2.0 | 5.0 | 0.00 | 0.00 | 0.00 | 61 | 1008.9 |
| 20260904093852 | 73 | 186 | 3.0 | 5.0 | 0.00 | 0.00 | 0.00 | 61 | 1008.8 |
| 20260904093350 | 73 | 193 | 4.0 | 6.0 | 0.00 | 0.00 | 0.00 | 61 | 1008.8 |
| 20260904092850 | 73 | 182 | 4.0 | 7.0 | 0.00 | 0.00 | 0.00 | 61 | 1008.7 |
| 20260904092348 | 73 | 163 | 4.0 | 7.0 | 0.00 | 0.00 | 0.00 | 61 | 1008.6 |
| 20260904091848 | 73 | 195 | 4.0 | 7.0 | 0.00 | 0.00 | 0.00 | 61 | 1008.7 |
| 20260904091348 | 73 | 182 | 4.0 | 6.0 | 0.00 | 0.00 | 0.00 | 62 | 1008.7 |
| 20260904090846 | 73 | 199 | 4.0 | 7.0 | 0.00 | 0.00 | 0.00 | 62 | 1008.7 |
| 20260904090346 | 73 | 210 | 3.0 | 7.0 | 0.00 | 0.00 | 0.00 | 61 | 1008.6 |
| 20260904085845 | 73 | 186 | 4.0 | 7.0 | 0.00 | 0.00 | 0.00 | 61 | 1008.7 |
| 20260904085614 | 73 | 162 | 4.0 | 7.0 | 0.00 | 0.00 | 0.00 | 61 | 1008.6 |
| 20260904085115 | 73 | 178 | 4.0 | 7.0 | 0.00 | 0.00 | 0.00 | 62 | 1008.6 |
| 20260904084342 | 73 | 176 | 3.0 | 6.0 | 0.00 | 0.00 | 0.00 | 62 | 1008.6 |
| 20260904083841 | 73 | 201 | 3.0 | 5.0 | 0.00 | 0.00 | 0.00 | 62 | 1008.6 |
| 20260904083340 | 73 | 200 | 3.0 | 5.0 | 0.00 | 0.00 | 0.00 | 62 | 1008.7 |
| 20260904082839 | 73 | 203 | 4.0 | 5.0 | 0.00 | 0.00 | 0.00 | 63 | 1008.7 |
| 20260904082610 | 73 | 209 | 2.0 | 5.0 | 0.00 | 0.00 | 0.00 | 63 | 1008.7 |
| 20260904081840 | 73 | 167 | 1.0 | 3.0 | 0.00 | 0.00 | 0.00 | 62 | 1008.7 |
| 20260904081339 | 73 | 172 | 1.0 | 3.0 | 0.00 | 0.00 | 0.00 | 61 | 1008.8 |
| 20260904080838 | 73 | 200 | 2.0 | 4.0 | 0.00 | 0.00 | 0.00 | 62 | 1008.9 |
| 20260904080337 | 73 | 167 | 3.0 | 4.0 | 0.00 | 0.00 | 0.00 | 61 | 1008.8 |
| 20260904075840 | 73 | 172 | 2.0 | 4.0 | 0.00 | 0.00 | 0.00 | 62 | 1008.9 |
| 20260904075836 | 73 | 168 | 2.0 | 4.0 | 0.00 | 0.00 | 0.00 | 61 | 1008.9 |
| 20260904074835 | 73 | 188 | 2.0 | 4.0 | 0.00 | 0.00 | 0.00 | 62 | 1008.9 |
| 20260904074336 | 73 | 178 | 2.0 | 5.0 | 0.00 | 0.00 | 0.00 | 61 | 1009.0 |
| 20260904073835 | 73 | 152 | 3.0 | 6.0 | 0.00 | 0.00 | 0.00 | 60 | 1008.9 |
| 20260904073332 | 74 | 151 | 3.0 | 6.0 | 0.00 | 0.00 | 0.00 | 60 | 1008.8 |
| 20260904072832 | 74 | 158 | 3.0 | 5.0 | 0.00 | 0.00 | 0.00 | 59 | 1008.9 |
| 20260904072602 | 74 | 156 | 4.0 | 7.0 | 0.00 | 0.00 | 0.00 | 59 | 1009.0 |
| 20260904071832 | 74 | 217 | 4.0 | 7.0 | 0.00 | 0.00 | 0.00 | 59 | 1009.0 |
| 20260904071330 | 74 | 183 | 4.0 | 6.0 | 0.00 | 0.00 | 0.00 | 59 | 1009.1 |
| 20260904070829 | 74 | 191 | 3.0 | 5.0 | 0.00 | 0.00 | 0.00 | 59 | 1009.2 |
| 20260904070329 | 74 | 199 | 3.0 | 5.0 | 0.00 | 0.00 | 0.00 | 58 | 1009.2 |
| 20260904070101 | 74 | 203 | 3.0 | 5.0 | 0.00 | 0.00 | 0.00 | 58 | 1009.2 |
| 20260904065329 | 74 | 176 | 4.0 | 7.0 | 0.00 | 0.00 | 0.00 | 58 | 1009.3 |
| 20260904064830 | 74 | 147 | 3.0 | 7.0 | 0.00 | 0.00 | 0.00 | 58 | 1009.2 |
| 20260904064329 | 74 | 159 | 3.0 | 5.0 | 0.00 | 0.00 | 0.00 | 57 | 1009.3 |
| 20260904063831 | 75 | 153 | 4.0 | 7.0 | 0.00 | 0.00 | 0.00 | 56 | 1009.3 |
| 20260904063326 | 76 | 155 | 3.0 | 7.0 | 0.00 | 0.00 | 0.00 | 55 | 1009.3 |
| 20260904062823 | 76 | 143 | 3.0 | 5.0 | 0.00 | 0.00 | 0.00 | 56 | 1009.3 |
| 20260904062324 | 76 | 127 | 2.0 | 4.0 | 0.00 | 0.00 | 0.00 | 55 | 1009.3 |
| 20260904061823 | 76 | 142 | 3.0 | 5.0 | 0.00 | 0.00 | 0.00 | 55 | 1009.4 |
| 20260904061323 | 76 | 208 | 3.0 | 5.0 | 0.00 | 0.00 | 0.00 | 55 | 1009.5 |
| 20260904060824 | 76 | 226 | 3.0 | 5.0 | 0.00 | 0.00 | 0.00 | 55 | 1009.5 |
| 20260904060321 | 76 | 195 | 3.0 | 5.0 | 0.00 | 0.00 | 0.00 | 55 | 1009.5 |
| 20260904055820 | 76 | 212 | 3.0 | 8.0 | 0.00 | 0.00 | 0.00 | 55 | 1009.5 |
| 20260904055323 | 77 | 162 | 4.0 | 7.0 | 0.00 | 0.00 | 0.00 | 53 | 1009.5 |
| 20260904055319 | 77 | 154 | 3.0 | 8.0 | 0.00 | 0.00 | 0.00 | 54 | 1009.4 |
| 20260904054322 | 78 | 97 | 5.0 | 9.0 | 0.00 | 0.00 | 0.00 | 52 | 1009.5 |
| 20260904054318 | 78 | 124 | 4.0 | 8.0 | 0.00 | 0.00 | 0.00 | 52 | 1009.5 |
| 20260904053317 | 78 | 162 | 5.0 | 9.0 | 0.00 | 0.00 | 0.00 | 51 | 1009.5 |
| 20260904052818 | 78 | 128 | 5.0 | 9.0 | 0.00 | 0.00 | 0.00 | 51 | 1009.6 |
| 20260904052318 | 78 | 132 | 5.0 | 7.0 | 0.00 | 0.00 | 0.00 | 52 | 1009.6 |
| 20260904051817 | 78 | 127 | 5.0 | 7.0 | 0.00 | 0.00 | 0.00 | 52 | 1009.6 |
| 20260904051318 | 79 | 139 | 4.0 | 7.0 | 0.00 | 0.00 | 0.00 | 51 | 1009.7 |
| 20260904051050 | 79 | 122 | 5.0 | 9.0 | 0.00 | 0.00 | 0.00 | 51 | 1009.7 |
| 20260904050317 | 79 | 139 | 5.0 | 9.0 | 0.00 | 0.00 | 0.00 | 50 | 1009.7 |
| 20260904050046 | 80 | 143 | 5.0 | 9.0 | 0.00 | 0.00 | 0.00 | 49 | 1009.8 |
| 20260904045312 | 80 | 136 | 5.0 | 7.0 | 0.00 | 0.00 | 0.00 | 49 | 1009.8 |
| 20260904044811 | 80 | 160 | 6.0 | 12.0 | 0.00 | 0.00 | 0.00 | 49 | 1009.9 |
| 20260904044542 | 80 | 112 | 6.0 | 12.0 | 0.00 | 0.00 | 0.00 | 48 | 1009.9 |
| 20260904043812 | 81 | 138 | 6.0 | 10.0 | 0.00 | 0.00 | 0.00 | 47 | 1009.8 |
| 20260904043312 | 81 | 123 | 6.0 | 12.0 | 0.00 | 0.00 | 0.00 | 47 | 1009.8 |
| 20260904042810 | 81 | 124 | 5.0 | 12.0 | 0.00 | 0.00 | 0.00 | 47 | 1009.8 |
| 20260904042308 | 81 | 177 | 5.0 | 12.0 | 0.00 | 0.00 | 0.00 | 47 | 1009.8 |
| 20260904041808 | 81 | 176 | 5.0 | 12.0 | 0.00 | 0.00 | 0.00 | 46 | 1009.8 |
| 20260904041307 | 81 | 174 | 6.0 | 12.0 | 0.00 | 0.00 | 0.00 | 46 | 1009.8 |
| 20260904040806 | 81 | 243 | 6.0 | 12.0 | 0.00 | 0.00 | 0.00 | 46 | 1009.7 |
| 20260904040306 | 81 | 160 | 6.0 | 12.0 | 0.00 | 0.00 | 0.00 | 47 | 1009.7 |
| 20260904035805 | 81 | 192 | 6.0 | 18.0 | 0.00 | 0.00 | 0.00 | 47 | 1009.6 |
| 20260904035306 | 80 | 158 | 7.0 | 18.0 | 0.00 | 0.00 | 0.00 | 48 | 1009.6 |
| 20260904034805 | 80 | 205 | 7.0 | 13.0 | 0.00 | 0.00 | 0.00 | 50 | 1009.6 |
| 20260904034303 | 79 | 202 | 7.0 | 11.0 | 0.00 | 0.00 | 0.00 | 51 | 1009.5 |
| 20260904033804 | 79 | 214 | 7.0 | 13.0 | 0.00 | 0.00 | 0.00 | 51 | 1009.4 |
| 20260904033533 | 80 | 218 | 6.0 | 13.0 | 0.00 | 0.00 | 0.00 | 50 | 1009.2 |
| 20260904033031 | 80 | 262 | 5.0 | 12.0 | 0.00 | 0.00 | 0.00 | 49 | 1008.9 |
| 20260904032259 | 80 | 169 | 7.0 | 12.0 | 0.00 | 0.00 | 0.00 | 48 | 1009.0 |
| 20260904031801 | 80 | 148 | 8.0 | 13.0 | 0.00 | 0.00 | 0.00 | 48 | 1008.8 |
| 20260904031530 | 80 | 139 | 10.0 | 18.0 | 0.00 | 0.00 | 0.00 | 49 | 1008.4 |
| 20260904031031 | 80 | 94 | 11.0 | 18.0 | 0.00 | 0.00 | 0.00 | 49 | 1008.5 |
| 20260904030531 | 80 | 153 | 11.0 | 17.0 | 0.00 | 0.00 | 0.00 | 50 | 1008.3 |
| 20260904030031 | 80 | 150 | 10.0 | 17.0 | 0.00 | 0.00 | 0.00 | 50 | 1008.4 |
| 20260904025300 | 80 | 138 | 8.0 | 17.0 | 0.00 | 0.00 | 0.00 | 49 | 1008.3 |
| 20260904024757 | 80 | 286 | 8.0 | 13.0 | 0.00 | 0.00 | 0.00 | 50 | 1008.2 |
| 20260904024254 | 80 | 168 | 9.0 | 15.0 | 0.00 | 0.00 | 0.00 | 50 | 1008.2 |
| 20260904023756 | 80 | 137 | 8.0 | 15.0 | 0.00 | 0.00 | 0.00 | 51 | 1008.2 |
| 20260904023254 | 79 | 114 | 7.0 | 12.0 | 0.00 | 0.00 | 0.00 | 52 | 1008.3 |
| 20260904022751 | 79 | 141 | 7.0 | 12.0 | 0.00 | 0.00 | 0.00 | 52 | 1008.2 |
| 20260904022251 | 79 | 101 | 6.0 | 12.0 | 0.00 | 0.00 | 0.00 | 52 | 1008.2 |
| 20260904021753 | 79 | 95 | 6.0 | 12.0 | 0.00 | 0.00 | 0.00 | 53 | 1008.1 |
| 20260904021251 | 79 | 127 | 8.0 | 13.0 | 0.00 | 0.00 | 0.00 | 53 | 1008.0 |
| 20260904020750 | 80 | 126 | 8.0 | 13.0 | 0.00 | 0.00 | 0.00 | 53 | 1008.1 |
| 20260904020248 | 80 | 113 | 7.0 | 13.0 | 0.00 | 0.00 | 0.00 | 53 | 1008.0 |
| 20260904015747 | 80 | 117 | 7.0 | 13.0 | 0.00 | 0.00 | 0.00 | 53 | 1007.9 |
| 20260904015248 | 80 | 148 | 7.0 | 13.0 | 0.00 | 0.00 | 0.00 | 53 | 1007.8 |
| 20260904014746 | 80 | 152 | 7.0 | 12.0 | 0.00 | 0.00 | 0.00 | 54 | 1007.8 |
| 20260904014245 | 80 | 86 | 7.0 | 12.0 | 0.00 | 0.00 | 0.00 | 53 | 1007.8 |
| 20260904013746 | 80 | 148 | 7.0 | 12.0 | 0.00 | 0.00 | 0.00 | 53 | 1007.7 |
| 20260904013246 | 80 | 63 | 8.0 | 15.0 | 0.00 | 0.00 | 0.00 | 52 | 1007.7 |
| 20260904012743 | 80 | 146 | 7.0 | 15.0 | 0.00 | 0.00 | 0.00 | 52 | 1007.6 |
| 20260904012243 | 80 | 150 | 6.0 | 11.0 | 0.00 | 0.00 | 0.00 | 51 | 1007.5 |
| 20260904011742 | 81 | 140 | 6.0 | 10.0 | 0.00 | 0.00 | 0.00 | 52 | 1007.4 |
| 20260904011241 | 81 | 128 | 7.0 | 12.0 | 0.00 | 0.00 | 0.00 | 52 | 1007.2 |
| 20260904010740 | 82 | 129 | 8.0 | 12.0 | 0.00 | 0.00 | 0.00 | 50 | 1007.0 |
| 20260904010239 | 83 | 91 | 8.0 | 13.0 | 0.00 | 0.00 | 0.00 | 48 | 1007.0 |
| 20260904005739 | 83 | 129 | 9.0 | 16.0 | 0.00 | 0.00 | 0.00 | 46 | 1007.0 |
| 20260904005239 | 84 | 113 | 9.0 | 16.0 | 0.00 | 0.00 | 0.00 | 45 | 1006.9 |
| 20260904004737 | 84 | 110 | 8.0 | 13.0 | 0.00 | 0.00 | 0.00 | 45 | 1006.9 |
| 20260904004508 | 85 | 113 | 7.0 | 13.0 | 0.00 | 0.00 | 0.00 | 44 | 1006.8 |
| 20260904003737 | 86 | 139 | 6.0 | 13.0 | 0.00 | 0.00 | 0.00 | 43 | 1006.7 |
| 20260904003507 | 86 | 150 | 7.0 | 13.0 | 0.00 | 0.00 | 0.00 | 41 | 1006.8 |
| 20260904002735 | 87 | 110 | 8.0 | 13.0 | 0.00 | 0.00 | 0.00 | 40 | 1006.7 |
| 20260904002236 | 87 | 176 | 8.0 | 14.0 | 0.00 | 0.00 | 0.00 | 38 | 1006.7 |
| 20260904001735 | 87 | 148 | 8.0 | 14.0 | 0.00 | 0.00 | 0.00 | 39 | 1006.7 |
| 20260904001233 | 87 | 124 | 6.0 | 12.0 | 0.00 | 0.00 | 0.00 | 41 | 1006.7 |
| 20260904000732 | 87 | 127 | 6.0 | 11.0 | 0.00 | 0.00 | 0.00 | 41 | 1006.7 |
| 20260904000233 | 87 | 108 | 9.0 | 15.0 | 0.00 | 0.00 | 0.00 | 43 | 1006.8 |
| 20260903235731 | 86 | 85 | 11.0 | 16.0 | 0.00 | 0.00 | 0.00 | 41 | 1006.8 |
| 20260903235232 | 86 | 99 | 11.0 | 17.0 | 0.00 | 0.00 | 0.00 | 41 | 1006.8 |
| 20260903234731 | 86 | 99 | 13.0 | 24.0 | 0.00 | 0.00 | 0.00 | 42 | 1006.7 |
| 20260903234231 | 86 | 114 | 13.0 | 24.0 | 0.00 | 0.00 | 0.00 | 39 | 1006.7 |
| 20260903233728 | 85 | 89 | 11.0 | 19.0 | 0.00 | 0.00 | 0.00 | 40 | 1006.8 |
| 20260903233227 | 85 | 104 | 11.0 | 21.0 | 0.00 | 0.00 | 0.00 | 44 | 1007.0 |
| 20260903232727 | 85 | 101 | 11.0 | 21.0 | 0.00 | 0.00 | 0.00 | 43 | 1007.0 |
| 20260903232225 | 85 | 102 | 10.0 | 20.0 | 0.00 | 0.00 | 0.00 | 42 | 1007.2 |
| 20260903231956 | 86 | 92 | 12.0 | 21.0 | 0.00 | 0.00 | 0.00 | 43 | 1007.3 |
| 20260903231226 | 85 | 153 | 13.0 | 21.0 | 0.00 | 0.00 | 0.00 | 43 | 1007.2 |
| 20260903230723 | 85 | 155 | 13.0 | 20.0 | 0.00 | 0.00 | 0.00 | 44 | 1007.4 |
| 20260903230223 | 85 | 87 | 10.0 | 19.0 | 0.00 | 0.00 | 0.00 | 40 | 1007.3 |
| 20260903225724 | 83 | 144 | 10.0 | 20.0 | 0.00 | 0.00 | 0.00 | 46 | 1007.5 |
| 20260903225221 | 83 | 136 | 13.0 | 23.0 | 0.00 | 0.00 | 0.00 | 44 | 1007.5 |
| 20260903224721 | 85 | 124 | 10.0 | 23.0 | 0.00 | 0.00 | 0.00 | 42 | 1007.3 |
| 20260903224219 | 89 | 160 | 9.0 | 18.0 | 0.00 | 0.00 | 0.00 | 36 | 1007.3 |
| 20260903223950 | 89 | 253 | 11.0 | 19.0 | 0.00 | 0.00 | 0.00 | 34 | 1006.8 |
| 20260903223219 | 89 | 0 | 10.0 | 19.0 | 0.00 | 0.00 | 0.00 | 33 | 1006.7 |
| 20260903222717 | 91 | 276 | 8.0 | 15.0 | 0.00 | 0.00 | 0.00 | 27 | 1006.5 |
| 20260903222217 | 91 | 328 | 8.0 | 15.0 | 0.00 | 0.00 | 0.00 | 29 | 1006.1 |
| 20260903221717 | 90 | 300 | 9.0 | 15.0 | 0.00 | 0.00 | 0.00 | 29 | 1006.3 |
| 20260903221219 | 89 | 269 | 10.0 | 16.0 | 0.00 | 0.00 | 0.00 | 35 | 1006.3 |
| 20260903220715 | 91 | 295 | 10.0 | 16.0 | 0.00 | 0.00 | 0.00 | 33 | 1006.5 |
| 20260903220215 | 92 | 326 | 9.0 | 15.0 | 0.00 | 0.00 | 0.00 | 30 | 1006.5 |
| 20260903215713 | 94 | 255 | 8.0 | 11.0 | 0.00 | 0.00 | 0.00 | 27 | 1006.7 |
| 20260903215213 | 94 | 342 | 9.0 | 13.0 | 0.00 | 0.00 | 0.00 | 26 | 1006.6 |
| 20260903214713 | 94 | 343 | 9.0 | 13.0 | 0.00 | 0.00 | 0.00 | 25 | 1006.5 |
| 20260903214212 | 95 | 356 | 6.0 | 13.0 | 0.00 | 0.00 | 0.00 | 26 | 1006.5 |
| 20260903213711 | 96 | 338 | 4.0 | 11.0 | 0.00 | 0.00 | 0.00 | 25 | 1006.5 |
| 20260903213211 | 96 | 332 | 4.0 | 11.0 | 0.00 | 0.00 | 0.00 | 24 | 1006.5 |
| 20260903212711 | 96 | 359 | 6.0 | 24.0 | 0.00 | 0.00 | 0.00 | 25 | 1006.5 |
| 20260903212212 | 95 | 242 | 6.0 | 24.0 | 0.00 | 0.00 | 0.00 | 25 | 1006.5 |
| 20260903211709 | 96 | 13 | 3.0 | 8.0 | 0.00 | 0.00 | 0.00 | 25 | 1006.5 |
| 20260903211208 | 94 | 1 | 4.0 | 9.0 | 0.00 | 0.00 | 0.00 | 26 | 1006.7 |
| 20260903210707 | 94 | 336 | 8.0 | 12.0 | 0.00 | 0.00 | 0.00 | 27 | 1006.8 |
| 20260903210207 | 94 | 326 | 11.0 | 18.0 | 0.00 | 0.00 | 0.00 | 27 | 1006.9 |
| 20260903205706 | 93 | 342 | 12.0 | 18.0 | 0.00 | 0.00 | 0.00 | 28 | 1006.9 |
| 20260903205207 | 95 | 3 | 8.0 | 16.0 | 0.00 | 0.00 | 0.00 | 27 | 1007.0 |
| 20260903204705 | 98 | 315 | 8.0 | 14.0 | 0.00 | 0.00 | 0.00 | 22 | 1007.2 |
| 20260903204205 | 98 | 96 | 8.0 | 14.0 | 0.00 | 0.00 | 0.00 | 23 | 1007.1 |